Regional Weather Roundup
Issued by NWS

Home | Current Version | Previous Version | Graphics & Text | Print | Product List | Glossary On
Versions: 1 2 3 4 5 6 7 8 9 10 11 12 13 14 15 16 17 18 19 20 21 22 23 24 25 26 27 28 29 30 31 32 33 34 35 36 37 38 39 40 41 42 43 44 45 46 47 48 49 50
000
ASUS44 KLIX 201813
RWRLA
LOUISIANA WEATHER ROUNDUP
NATIONAL WEATHER SERVICE NEW ORLEANS LA
100 PM CDT FRI OCT 20 2017

NOTE: "FAIR" INDICATES FEW OR NO CLOUDS BELOW 12,000 FEET WITH NO
      SIGNIFICANT WEATHER AND/OR OBSTRUCTIONS TO VISIBILITY.
      SKY/WX - SKY CONDITION AND SIGNIFICANT WEATHER.
      TMP - AIR TEMPERATURE.    DP   - DEWPOINT TEMPERATURE.
      RH  - RELATIVE HUMIDITY.  PRES - PRESSURE.
      HX  - HEAT INDEX.         WCI  - WIND CHILL INDEX.

*  THESE STATIONS ARE NOT NWS OR FAA STATIONS AND ARE NOT UNDER
   NWS QUALITY CONTROL.

LAZ040-048-061>063-065-066-069-201900-
SOUTHEAST LOUISIANA

CITY           SKY/WX    TMP DP  RH WIND       PRES   REMARKS
N.O. INTL ARPT CLOUDY    81  72  74 E15       30.10F
6HR MIN TEMP:  69; 6HR MAX TEMP:  82;

N.O. LAKEFRONT CLOUDY    81  71  71 E15       30.11F
6HR MIN TEMP:  69; 6HR MAX TEMP:  81;

N.O. DOWNTOWN* FAIR      79  70  74 E9        30.11F
6HR MIN TEMP:  69; 6HR MAX TEMP:  79;

RESERVE*       MOCLDY    80  69  67 E10       30.11F
6HR MIN TEMP:  67; 6HR MAX TEMP:  81;

SLIDELL        CLOUDY    80  68  66 E7        30.12F
6HR MIN TEMP:  59; 6HR MAX TEMP:  81;

BATON ROUGE    CLOUDY    78  65  63 E13       30.09F
6HR MIN TEMP:  61; 6HR MAX TEMP:  78;

BOOTHVILLE     MOSUNNY   82  67  60 E9        30.10F
6HR MIN TEMP:  78; 6HR MAX TEMP:  85;

BELLE CHASSE   NOT AVBL
BOGALUSA*      FAIR      82  65  57 E9        30.15F
6HR MIN TEMP:  57; 6HR MAX TEMP:  82;

GALLIANO*      CLOUDY    83  69  62 E10       30.09F
6HR MIN TEMP:  70; 6HR MAX TEMP:  83;

NEW ROADS*     FAIR      79  65  62 E9        30.10F
6HR MIN TEMP:  62; 6HR MAX TEMP:  79;

GONZALES*      FAIR      79  68  69 E3        30.09F
6HR MIN TEMP:  64; 6HR MAX TEMP:  79;

HAMMOND*       PTSUNNY   81  64  57 SE10G17   30.11F
HOUMA*         MOSUNNY   82  70  65 SE14      30.08F
PORT FOURCHON* NOT AVBL

$$

LAZ041-044-053-054-201900-
SOUTHWEST LOUISIANA

CITY           SKY/WX    TMP DP  RH WIND       PRES   REMARKS
LAKE CHARLES   PTSUNNY   75  65  70 E10       30.07F
6HR MIN TEMP:  71; 6HR MAX TEMP:  77;

LAFAYETTE      CLOUDY    79  68  69 VRB5      30.09S
6HR MIN TEMP:  67; 6HR MAX TEMP:  79;

PATTERSON      CLOUDY    79  70  74 E12       30.08F
6HR MIN TEMP:  67; 6HR MAX TEMP:  80;

SALT POINT       N/A     79  68  69 SE8       30.06F
6HR MIN TEMP:  69; 6HR MAX TEMP:  79;

NEW IBERIA     CLOUDY    78  65  63 E8        30.09F
6HR MIN TEMP:  68; 6HR MAX TEMP:  79;

CHENAULT AIRPK PTSUNNY   75  64  69 E6G22     30.10F

$$

LAZ027-028-201900-
CENTRAL LOUISIANA

CITY           SKY/WX    TMP DP  RH WIND       PRES   REMARKS
FORT POLK      CLOUDY    73  64  73 SE10      30.10R
6HR MIN TEMP:  68; 6HR MAX TEMP:  73;

ALEXANDRIA INT CLOUDY    75  62  64 E10       30.08F
6HR MIN TEMP:  64; 6HR MAX TEMP:  75;

ALEXANDRIA     MOSUNNY   76  62  62 SE12      30.10F
6HR MIN TEMP:  57; 6HR MAX TEMP:  77;


$$

LAZ001-002-201900-
NORTHWEST LOUISIANA

CITY           SKY/WX    TMP DP  RH WIND       PRES   REMARKS
SHREVEPORT     CLOUDY    76  63  64 E8        30.09F
6HR MIN TEMP:  62; 6HR MAX TEMP:  76;

BARKSDALE AFB  CLOUDY    74  61  63 E7        30.10F
6HR MIN TEMP:  60; 6HR MAX TEMP:  74;

DTN SHREVEPORT CLOUDY    74  62  66 E6        30.10F
6HR MIN TEMP:  60; 6HR MAX TEMP:  75;


$$

LAZ014-016-201900-
NORTHEAST LOUISIANA

CITY           SKY/WX    TMP DP  RH WIND       PRES   REMARKS
MONROE         CLOUDY    75  59  57 VRB5      30.14F
6HR MIN TEMP:  56; 6HR MAX TEMP:  75;

TALLULAH       MOSUNNY   78  61  55 SE9       30.14F
6HR MIN TEMP:  56; 6HR MAX TEMP:  79;


$$




USA.gov is the U.S. government's official web portal to all federal, state and local government web resources and services.